Time,TemperatureF,DewpointF,PressureIn,WindDirection,WindDirectionDegrees,WindSpeedMPH,WindSpeedGustMPH,Humidity,HourlyPrecipIn,Conditions,Clouds,dailyrainin,SoftwareType,DateUTC
2013-07-24 00:10:00,65.0,65.0,29.52,NW,313,0.0,0.0,98,0.00,,,2.11,weatherlink.com 1.10,2013-07-24 04:10:00,
2013-07-24 00:24:00,65.1,65.0,29.51,NW,313,0.0,1.0,98,0.00,,,2.11,weatherlink.com 1.10,2013-07-24 04:24:00,
2013-07-24 00:39:00,65.1,65.0,29.51,SSW,207,0.0,1.0,98,0.00,,,2.11,weatherlink.com 1.10,2013-07-24 04:39:00,
2013-07-24 00:54:00,65.0,65.0,29.50,SSW,207,0.0,1.0,98,0.00,,,2.11,weatherlink.com 1.10,2013-07-24 04:54:00,
2013-07-24 01:09:00,64.9,64.0,29.50,SSW,207,0.0,0.0,98,0.00,,,0.00,weatherlink.com 1.10,2013-07-24 05:09:00,
2013-07-24 01:24:00,64.8,64.0,29.50,SSW,208,0.0,1.0,98,0.01,,,0.01,weatherlink.com 1.10,2013-07-24 05:24:00,
2013-07-24 01:39:00,64.5,64.0,29.50,SSW,208,0.0,0.0,98,0.01,,,0.01,weatherlink.com 1.10,2013-07-24 05:39:00,
2013-07-24 01:54:00,64.4,64.0,29.50,SSW,208,0.0,0.0,98,0.01,,,0.01,weatherlink.com 1.10,2013-07-24 05:54:00,
2013-07-24 02:09:00,64.1,64.0,29.50,SSW,207,0.0,0.0,98,0.01,,,0.01,weatherlink.com 1.10,2013-07-24 06:09:00,
2013-07-24 02:25:00,63.8,63.0,29.50,SSW,208,0.0,0.0,98,0.00,,,0.01,weatherlink.com 1.10,2013-07-24 06:25:00,
2013-07-24 02:40:00,63.8,63.0,29.50,SSW,207,0.0,0.0,98,0.00,,,0.01,weatherlink.com 1.10,2013-07-24 06:40:00,
2013-07-24 02:55:00,63.9,64.0,29.50,SSW,208,0.0,0.0,99,0.00,,,0.01,weatherlink.com 1.10,2013-07-24 06:55:00,
2013-07-24 03:10:00,63.6,63.0,29.50,SSW,208,0.0,0.0,99,0.00,,,0.01,weatherlink.com 1.10,2013-07-24 07:10:00,
2013-07-24 03:25:00,63.5,63.0,29.50,SSW,207,0.0,1.0,99,0.00,,,0.01,weatherlink.com 1.10,2013-07-24 07:25:00,
2013-07-24 03:40:00,63.2,63.0,29.50,SSW,208,0.0,0.0,98,0.00,,,0.01,weatherlink.com 1.10,2013-07-24 07:40:00,
2013-07-24 03:55:00,63.0,63.0,29.51,SW,221,0.0,2.0,99,0.00,,,0.01,weatherlink.com 1.10,2013-07-24 07:55:00,
2013-07-24 04:10:00,63.1,63.0,29.50,SW,221,0.0,1.0,99,0.00,,,0.01,weatherlink.com 1.10,2013-07-24 08:10:00,
2013-07-24 04:25:00,63.0,63.0,29.50,SW,221,0.0,0.0,99,0.00,,,0.01,weatherlink.com 1.10,2013-07-24 08:25:00,
2013-07-24 04:40:00,62.9,63.0,29.50,SW,221,0.0,0.0,99,0.00,,,0.01,weatherlink.com 1.10,2013-07-24 08:40:00,
2013-07-24 04:55:00,62.5,62.0,29.50,SW,221,0.0,0.0,98,0.00,,,0.01,weatherlink.com 1.10,2013-07-24 08:55:00,
2013-07-24 05:10:00,62.5,62.0,29.50,SW,221,0.0,1.0,99,0.00,,,0.01,weatherlink.com 1.10,2013-07-24 09:10:00,
2013-07-24 05:25:00,62.3,62.0,29.51,SW,221,0.0,0.0,99,0.00,,,0.01,weatherlink.com 1.10,2013-07-24 09:25:00,
2013-07-24 05:40:00,62.1,62.0,29.51,SW,221,0.0,0.0,99,0.00,,,0.01,weatherlink.com 1.10,2013-07-24 09:40:00,
2013-07-24 05:55:00,61.9,62.0,29.51,SW,221,0.0,1.0,99,0.00,,,0.01,weatherlink.com 1.10,2013-07-24 09:55:00,
2013-07-24 06:10:00,62.2,62.0,29.51,SW,221,0.0,0.0,99,0.00,,,0.01,weatherlink.com 1.10,2013-07-24 10:10:00,
2013-07-24 06:25:00,63.0,63.0,29.51,SW,221,0.0,1.0,99,0.00,,,0.01,weatherlink.com 1.10,2013-07-24 10:25:00,
2013-07-24 06:40:00,63.2,63.0,29.51,SW,221,0.0,1.0,99,0.00,,,0.01,weatherlink.com 1.10,2013-07-24 10:40:00,
2013-07-24 06:55:00,63.6,63.0,29.52,SW,221,0.0,1.0,99,0.00,,,0.01,weatherlink.com 1.10,2013-07-24 10:55:00,
2013-07-24 07:10:00,64.6,64.0,29.52,SW,221,0.0,1.0,99,0.00,,,0.01,weatherlink.com 1.10,2013-07-24 11:10:00,
2013-07-24 07:25:00,65.8,66.0,29.52,SW,221,0.0,1.0,99,0.00,,,0.01,weatherlink.com 1.10,2013-07-24 11:25:00,
2013-07-24 07:40:00,66.8,67.0,29.52,SW,221,0.0,0.0,100,0.00,,,0.01,weatherlink.com 1.10,2013-07-24 11:40:00,
2013-07-24 07:55:00,67.5,68.0,29.52,SW,221,0.0,1.0,100,0.00,,,0.01,weatherlink.com 1.10,2013-07-24 11:55:00,
2013-07-24 08:10:00,67.9,68.0,29.53,SW,221,0.0,1.0,99,0.00,,,0.01,weatherlink.com 1.10,2013-07-24 12:10:00,
2013-07-24 08:25:00,68.3,68.0,29.54,SW,221,0.0,1.0,99,0.00,,,0.01,weatherlink.com 1.10,2013-07-24 12:25:00,
2013-07-24 08:40:00,69.2,69.0,29.54,SW,221,0.0,1.0,99,0.00,,,0.01,weatherlink.com 1.10,2013-07-24 12:40:00,
2013-07-24 08:55:00,70.1,70.0,29.55,SSW,208,3.0,3.0,99,0.00,,,0.01,weatherlink.com 1.10,2013-07-24 12:55:00,
2013-07-24 09:10:00,71.0,70.0,29.55,South,188,0.0,5.0,95,0.00,,,0.01,weatherlink.com 1.10,2013-07-24 13:10:00,
2013-07-24 09:25:00,72.3,69.0,29.55,South,188,0.0,2.0,90,0.00,,,0.01,weatherlink.com 1.10,2013-07-24 13:25:00,
2013-07-24 09:40:00,74.6,70.0,29.56,SE,144,0.0,3.0,84,0.00,,,0.01,weatherlink.com 1.10,2013-07-24 13:40:00,
2013-07-24 09:56:00,76.4,71.0,29.56,SW,215,0.0,9.0,84,0.00,,,0.01,weatherlink.com 1.10,2013-07-24 13:56:00,
2013-07-24 10:11:00,76.2,70.0,29.57,South,184,0.0,5.0,80,0.00,,,0.01,weatherlink.com 1.10,2013-07-24 14:11:00,
2013-07-24 10:26:00,76.2,69.0,29.57,WSW,251,0.0,3.0,78,0.00,,,0.01,weatherlink.com 1.10,2013-07-24 14:26:00,
2013-07-24 10:41:00,76.4,69.0,29.57,North,351,0.0,5.0,77,0.00,,,0.01,weatherlink.com 1.10,2013-07-24 14:41:00,
2013-07-24 10:56:00,76.0,68.0,29.58,North,350,1.0,6.0,75,0.00,,,0.01,weatherlink.com 1.10,2013-07-24 14:56:00,
2013-07-24 11:26:00,74.6,67.0,29.60,NNW,342,0.0,11.0,77,0.00,,,0.01,weatherlink.com 1.10,2013-07-24 15:26:00,
2013-07-24 11:41:00,75.2,67.0,29.60,NW,320,5.0,5.0,76,0.00,,,0.01,weatherlink.com 1.10,2013-07-24 15:41:00,
2013-07-24 11:56:00,75.1,66.0,29.61,NNE,22,1.0,14.0,74,0.00,,,0.01,weatherlink.com 1.10,2013-07-24 15:56:00,
2013-07-24 12:11:00,75.9,66.0,29.62,NE,53,3.0,11.0,72,0.00,,,0.01,weatherlink.com 1.10,2013-07-24 16:11:00,
2013-07-24 12:26:00,74.8,65.0,29.62,SSW,207,0.0,11.0,71,0.00,,,0.01,weatherlink.com 1.10,2013-07-24 16:26:00,
2013-07-24 12:41:00,74.7,66.0,29.63,NE,53,4.0,10.0,73,0.00,,,0.01,weatherlink.com 1.10,2013-07-24 16:41:00,
2013-07-24 12:56:00,73.7,64.0,29.64,NW,304,5.0,7.0,72,0.00,,,0.01,weatherlink.com 1.10,2013-07-24 16:56:00,
2013-07-24 13:11:00,73.5,64.0,29.64,NE,42,3.0,9.0,72,0.00,,,0.01,weatherlink.com 1.10,2013-07-24 17:11:00,
2013-07-24 13:26:00,72.8,65.0,29.65,NE,34,3.0,8.0,76,0.00,,,0.01,weatherlink.com 1.10,2013-07-24 17:26:00,
2013-07-24 13:41:00,73.4,63.0,29.65,WNW,300,3.0,10.0,71,0.00,,,0.01,weatherlink.com 1.10,2013-07-24 17:41:00,
2013-07-24 13:56:00,73.2,64.0,29.66,North,355,2.0,7.0,74,0.00,,,0.01,weatherlink.com 1.10,2013-07-24 17:56:00,
2013-07-24 14:11:00,74.2,64.0,29.65,NNW,327,0.0,6.0,71,0.00,,,0.01,weatherlink.com 1.10,2013-07-24 18:11:00,
2013-07-24 14:26:00,74.1,63.0,29.65,WNW,286,2.0,7.0,68,0.00,,,0.01,weatherlink.com 1.10,2013-07-24 18:26:00,
2013-07-24 14:56:00,74.3,64.0,29.65,NNW,333,0.0,4.0,71,0.00,,,0.01,weatherlink.com 1.10,2013-07-24 18:56:00,
2013-07-24 15:11:00,75.9,64.0,29.65,North,9,2.0,10.0,67,0.00,,,0.01,weatherlink.com 1.10,2013-07-24 19:11:00,
2013-07-24 15:41:00,75.8,64.0,29.66,NE,34,3.0,9.0,66,0.00,,,0.01,weatherlink.com 1.10,2013-07-24 19:41:00,
2013-07-24 15:56:00,75.8,63.0,29.66,SW,219,1.0,9.0,64,0.00,,,0.01,weatherlink.com 1.10,2013-07-24 19:56:00,
2013-07-24 16:12:00,75.6,63.0,29.67,ENE,78,3.0,8.0,64,0.00,,,0.01,weatherlink.com 1.10,2013-07-24 20:12:00,
2013-07-24 16:27:00,75.5,61.0,29.68,NW,318,5.0,10.0,62,0.00,,,0.01,weatherlink.com 1.10,2013-07-24 20:27:00,
2013-07-24 16:41:00,75.2,62.0,29.68,NNE,14,1.0,9.0,64,0.00,,,0.01,weatherlink.com 1.10,2013-07-24 20:41:00,
2013-07-24 16:56:00,74.5,61.0,29.69,NNE,17,0.0,8.0,63,0.00,,,0.01,weatherlink.com 1.10,2013-07-24 20:56:00,
2013-07-24 17:26:00,73.0,60.0,29.70,NW,305,3.0,9.0,63,0.00,,,0.01,weatherlink.com 1.10,2013-07-24 21:26:00,
2013-07-24 17:41:00,72.2,58.0,29.71,NNW,348,6.0,9.0,62,0.00,,,0.01,weatherlink.com 1.10,2013-07-24 21:41:00,
2013-07-24 17:56:00,71.6,59.0,29.72,NW,319,4.0,9.0,65,0.00,,,0.01,weatherlink.com 1.10,2013-07-24 21:56:00,
2013-07-24 18:11:00,70.3,58.0,29.72,NNE,29,3.0,8.0,66,0.00,,,0.01,weatherlink.com 1.10,2013-07-24 22:11:00,
2013-07-24 18:26:00,70.1,59.0,29.73,North,11,0.0,8.0,68,0.00,,,0.01,weatherlink.com 1.10,2013-07-24 22:26:00,
2013-07-24 18:42:00,69.9,58.0,29.74,NE,35,0.0,6.0,66,0.00,,,0.01,weatherlink.com 1.10,2013-07-24 22:42:00,
2013-07-24 18:57:00,69.1,58.0,29.75,NNW,346,0.0,8.0,67,0.00,,,0.01,weatherlink.com 1.10,2013-07-24 22:57:00,
2013-07-24 19:12:00,67.8,57.0,29.76,NW,316,0.0,13.0,69,0.00,,,0.01,weatherlink.com 1.10,2013-07-24 23:12:00,
2013-07-24 19:26:00,65.8,56.0,29.77,North,11,0.0,9.0,71,0.00,,,0.01,weatherlink.com 1.10,2013-07-24 23:26:00,
2013-07-24 19:41:00,64.3,55.0,29.77,NNW,331,3.0,11.0,72,0.00,,,0.01,weatherlink.com 1.10,2013-07-24 23:41:00,
2013-07-24 19:56:00,63.1,55.0,29.78,NNW,333,1.0,5.0,74,0.00,,,0.01,weatherlink.com 1.10,2013-07-24 23:56:00,
2013-07-24 20:11:00,62.1,53.0,29.79,North,355,2.0,9.0,73,0.00,,,0.01,weatherlink.com 1.10,2013-07-25 00:11:00,
2013-07-24 20:26:00,61.2,53.0,29.81,NNW,347,1.0,7.0,74,0.00,,,0.01,weatherlink.com 1.10,2013-07-25 00:26:00,
2013-07-24 20:41:00,60.5,53.0,29.82,NW,310,0.0,12.0,75,0.00,,,0.01,weatherlink.com 1.10,2013-07-25 00:41:00,
2013-07-24 20:57:00,59.6,52.0,29.84,NNW,337,0.0,2.0,77,0.00,,,0.01,weatherlink.com 1.10,2013-07-25 00:57:00,
2013-07-24 21:12:00,59.0,52.0,29.84,North,360,2.0,11.0,78,0.00,,,0.01,weatherlink.com 1.10,2013-07-25 01:12:00,
2013-07-24 21:27:00,58.7,52.0,29.85,WNW,292,1.0,10.0,77,0.00,,,0.01,weatherlink.com 1.10,2013-07-25 01:27:00,
2013-07-24 21:41:00,58.1,51.0,29.86,ENE,63,5.0,8.0,78,0.00,,,0.01,weatherlink.com 1.10,2013-07-25 01:41:00,
2013-07-24 21:57:00,57.7,50.0,29.86,SSW,208,2.0,7.0,76,0.00,,,0.01,weatherlink.com 1.10,2013-07-25 01:57:00,
2013-07-24 22:12:00,57.1,50.0,29.86,SSE,150,0.0,3.0,77,0.00,,,0.01,weatherlink.com 1.10,2013-07-25 02:12:00,
2013-07-24 22:27:00,56.7,49.0,29.87,ENE,64,0.0,5.0,76,0.00,,,0.01,weatherlink.com 1.10,2013-07-25 02:27:00,
2013-07-24 22:42:00,56.3,49.0,29.88,ENE,64,0.0,1.0,77,0.00,,,0.01,weatherlink.com 1.10,2013-07-25 02:42:00,
2013-07-24 22:57:00,55.5,48.0,29.89,NE,43,0.0,3.0,76,0.00,,,0.01,weatherlink.com 1.10,2013-07-25 02:57:00,
2013-07-24 23:12:00,55.3,48.0,29.90,NNW,333,0.0,2.0,75,0.00,,,0.01,weatherlink.com 1.10,2013-07-25 03:12:00,
2013-07-24 23:27:00,54.9,48.0,29.90,NW,325,0.0,2.0,77,0.00,,,0.01,weatherlink.com 1.10,2013-07-25 03:27:00,
2013-07-24 23:57:00,54.2,47.0,29.91,NNE,16,0.0,4.0,78,0.00,,,0.01,weatherlink.com 1.10,2013-07-25 03:57:00,